Regional Weather Roundup
Issued by NWS

Home | Current Version | Previous Version | Graphics & Text | Print | Product List | Glossary On
Versions: 1 2 3 4 5 6 7 8 9 10 11 12 13 14 15 16 17 18 19 20 21 22 23 24 25 26 27 28 29 30 31 32 33 34 35 36 37 38 39 40 41 42 43 44 45 46 47 48 49 50
000
ASUS43 KBIS 221031
RWRND
NORTH DAKOTA REGIONAL WEATHER ROUNDUP
NATIONAL WEATHER SERVICE EASTERN NORTH DAKOTA/GRAND FORKS ND
500 AM CDT SUN APR 22 2018

  NOTE: "FAIR" INDICATES FEW OR NO CLOUDS BELOW 12,000 FEET WITH NO
  SIGNIFICANT WEATHER AND/OR OBSTRUCTIONS TO VISIBILITY.

NDZ001>003-009>011-017-221100-
...NORTHWEST NORTH DAKOTA...

CITY           SKY/WX    TMP DP  RH WIND       PRES   REMARKS
WILLISTON      FAIR      45  26  47 W9        30.07R
MINOT          FAIR      43  36  76 SW13G22   30.07F
MINOT AFB      FAIR      40  36  85 SW15      30.05F WCI  32
$$

NDZ018>021-031>035-040>046-221100-
...SOUTHWEST NORTH DAKOTA...

CITY           SKY/WX    TMP DP  RH WIND       PRES   REMARKS
BISMARCK       FAIR      37  34  89 CALM      30.19R
DICKINSON      FAIR      32  31  96 SW8       30.09R WCI  25
GARRISON         N/A     37  34  89 S7        30.12R WCI  32
HETTINGER      FAIR      34  32  92 S6        30.14S WCI  29
$$

NDZ004>008-012>016-024-026-027-054-221100-
...NORTHEAST NORTH DAKOTA...

CITY           SKY/WX    TMP DP  RH WIND       PRES   REMARKS
GRAND FORKS    FAIR      36  36 100 S12       30.22F WCI  28
GRAND FORKS AF FAIR      37  35  89 S9        30.21F WCI  31
DEVILS LAKE    FAIR      39  31  72 SW9       30.19R WCI  33
$$

NDZ022-023-025-028>030-036>039-047>053-221100-
...SOUTHEAST NORTH DAKOTA...

CITY           SKY/WX    TMP DP  RH WIND       PRES   REMARKS
JAMESTOWN      FAIR      32  30  92 S12       30.20F WCI  23
FARGO          FAIR      36  32  85 S7        30.28R WCI  30
WAHPETON       FAIR      34  32  93 SE6       30.29S WCI  29
$$




USA.gov is the U.S. government's official web portal to all federal, state and local government web resources and services.